| time (UTC) | temp F | wind direction | speed MPH | gust MPH | rain 1hr in | rain 24hr in | rain mn in | humidity % | barometer mb |
| 20260508113054 | 52 | 259 | 1.0 | 5.0 | 0.00 | 0.00 | 0.00 | 78 | 1014.1 |
| 20260508111549 | 52 | 252 | 0.0 | 4.0 | 0.00 | 0.00 | 0.00 | 79 | 1013.8 |
| 20260508110045 | 51 | 269 | 0.0 | 3.0 | 0.00 | 0.00 | 0.00 | 80 | 1013.9 |
| 20260508104543 | 50 | 226 | 0.0 | 2.0 | 0.00 | 0.00 | 0.00 | 81 | 1013.8 |
| 20260508103049 | 50 | 0 | 0.0 | 2.0 | 0.00 | 0.00 | 0.00 | 80 | 1013.7 |
| 20260508101547 | 50 | 0 | 0.0 | 3.0 | 0.00 | 0.00 | 0.00 | 80 | 1013.8 |
| 20260508100048 | 50 | 164 | 0.0 | 2.0 | 0.00 | 0.00 | 0.00 | 79 | 1013.8 |
| 20260508094547 | 51 | 142 | 0.0 | 3.0 | 0.00 | 0.00 | 0.00 | 80 | 1013.7 |
| 20260508093051 | 51 | 122 | 1.0 | 2.0 | 0.00 | 0.00 | 0.00 | 79 | 1013.9 |
| 20260508091556 | 50 | 0 | 1.0 | 2.0 | 0.00 | 0.00 | 0.00 | 80 | 1013.8 |
| 20260508084543 | 51 | 0 | 0.0 | 2.0 | 0.00 | 0.00 | 0.00 | 78 | 1013.9 |
| 20260508083050 | 51 | 0 | 0.0 | 3.0 | 0.00 | 0.00 | 0.00 | 78 | 1014.0 |
| 20260508081600 | 52 | 0 | 0.0 | 2.0 | 0.00 | 0.00 | 0.00 | 77 | 1014.2 |
| 20260508080052 | 52 | 146 | 1.0 | 3.0 | 0.00 | 0.00 | 0.00 | 76 | 1014.3 |
| 20260508074548 | 52 | 141 | 1.0 | 5.0 | 0.00 | 0.00 | 0.00 | 76 | 1014.4 |
| 20260508073105 | 52 | 117 | 0.0 | 3.0 | 0.00 | 0.00 | 0.00 | 75 | 1014.4 |
| 20260508071559 | 52 | 189 | 1.0 | 3.0 | 0.00 | 0.00 | 0.00 | 76 | 1014.6 |
| 20260508070100 | 53 | 120 | 0.0 | 4.0 | 0.00 | 0.00 | 0.00 | 75 | 1014.7 |
| 20260508064544 | 53 | 0 | 1.0 | 7.0 | 0.00 | 0.00 | 0.00 | 74 | 1014.8 |
| 20260508063047 | 53 | 0 | 0.0 | 3.0 | 0.00 | 0.00 | 0.00 | 74 | 1014.8 |
| 20260508061538 | 53 | 131 | 0.0 | 3.0 | 0.00 | 0.00 | 0.00 | 74 | 1015.1 |
| 20260508060047 | 53 | 212 | 0.0 | 2.0 | 0.00 | 0.00 | 0.00 | 74 | 1015.0 |
| 20260508054551 | 53 | 139 | 0.0 | 3.0 | 0.00 | 0.00 | 0.00 | 74 | 1015.2 |
| 20260508053050 | 54 | 128 | 0.0 | 3.0 | 0.00 | 0.00 | 0.00 | 73 | 1015.3 |
| 20260508051542 | 54 | 126 | 0.0 | 4.0 | 0.00 | 0.00 | 0.00 | 73 | 1015.4 |
| 20260508050050 | 54 | 231 | 1.0 | 4.0 | 0.00 | 0.00 | 0.00 | 73 | 1015.4 |
| 20260508044548 | 54 | 128 | 1.0 | 3.0 | 0.00 | 0.00 | 0.00 | 73 | 1015.5 |
| 20260508043047 | 54 | 0 | 0.0 | 2.0 | 0.00 | 0.00 | 0.00 | 73 | 1015.7 |
| 20260508041545 | 54 | 120 | 0.0 | 4.0 | 0.00 | 0.00 | 0.00 | 74 | 1015.8 |
| 20260508040043 | 55 | 122 | 0.0 | 2.0 | 0.00 | 0.00 | 0.00 | 72 | 1015.9 |
| 20260508034547 | 55 | 137 | 1.0 | 2.0 | 0.00 | 0.00 | 0.00 | 73 | 1015.9 |
| 20260508033110 | 55 | 124 | 0.0 | 3.0 | 0.00 | 0.00 | 0.00 | 73 | 1016.2 |
| 20260508031545 | 55 | 167 | 0.0 | 2.0 | 0.00 | 0.00 | 0.00 | 73 | 1016.3 |
| 20260508030053 | 55 | 120 | 0.0 | 2.0 | 0.00 | 0.00 | 0.00 | 73 | 1016.3 |
| 20260508024540 | 55 | 123 | 1.0 | 3.0 | 0.00 | 0.00 | 0.00 | 74 | 1016.1 |
| 20260508023045 | 54 | 115 | 0.0 | 0.0 | 0.00 | 0.00 | 0.00 | 77 | 1016.0 |
| 20260508021544 | 54 | 0 | 0.0 | 0.0 | 0.00 | 0.00 | 0.00 | 76 | 1015.9 |
| 20260508014551 | 57 | 0 | 0.0 | 0.0 | 0.00 | 0.00 | 0.00 | 68 | 1015.4 |
| 20260508013040 | 59 | 0 | 0.0 | 0.0 | 0.00 | 0.00 | 0.00 | 64 | 1015.3 |
| 20260508011547 | 61 | 0 | 0.0 | 2.0 | 0.00 | 0.00 | 0.00 | 62 | 1015.2 |
| 20260508010046 | 63 | 227 | 0.0 | 3.0 | 0.00 | 0.00 | 0.00 | 58 | 1015.1 |
| 20260508004540 | 65 | 213 | 0.0 | 6.0 | 0.00 | 0.00 | 0.00 | 55 | 1015.3 |
| 20260508003048 | 65 | 173 | 2.0 | 7.0 | 0.00 | 0.00 | 0.00 | 53 | 1015.1 |
| 20260508001553 | 66 | 179 | 4.0 | 9.0 | 0.00 | 0.00 | 0.00 | 51 | 1015.1 |
| 20260508000045 | 67 | 230 | 3.0 | 7.0 | 0.00 | 0.00 | 0.00 | 51 | 1015.1 |
| 20260507234550 | 67 | 226 | 3.0 | 6.0 | 0.00 | 0.00 | 0.00 | 52 | 1015.2 |
| 20260507233043 | 67 | 255 | 2.0 | 11.0 | 0.00 | 0.00 | 0.00 | 50 | 1015.2 |
| 20260507231548 | 67 | 312 | 3.0 | 8.0 | 0.00 | 0.00 | 0.00 | 50 | 1015.2 |
| 20260507230052 | 67 | 263 | 4.0 | 9.0 | 0.00 | 0.00 | 0.00 | 49 | 1015.4 |
| 20260507224547 | 67 | 238 | 6.0 | 11.0 | 0.00 | 0.00 | 0.00 | 50 | 1015.6 |
| 20260507223046 | 68 | 236 | 2.0 | 10.0 | 0.00 | 0.00 | 0.00 | 50 | 1015.7 |
| 20260507221545 | 67 | 237 | 2.0 | 12.0 | 0.00 | 0.00 | 0.00 | 49 | 1015.8 |
| 20260507220049 | 67 | 274 | 4.0 | 9.0 | 0.00 | 0.00 | 0.00 | 52 | 1015.8 |
| 20260507214547 | 67 | 235 | 3.0 | 11.0 | 0.00 | 0.00 | 0.00 | 50 | 1016.0 |
| 20260507213053 | 67 | 283 | 4.0 | 12.0 | 0.00 | 0.00 | 0.00 | 53 | 1016.2 |
| 20260507211549 | 67 | 205 | 3.0 | 10.0 | 0.00 | 0.00 | 0.00 | 51 | 1016.3 |
| 20260507210042 | 66 | 317 | 4.0 | 10.0 | 0.00 | 0.00 | 0.00 | 54 | 1016.3 |
| 20260507204539 | 67 | 284 | 3.0 | 9.0 | 0.00 | 0.00 | 0.00 | 54 | 1016.7 |
| 20260507203046 | 67 | 278 | 3.0 | 14.0 | 0.00 | 0.00 | 0.00 | 53 | 1017.0 |
| 20260507201548 | 67 | 236 | 1.0 | 7.0 | 0.00 | 0.00 | 0.00 | 52 | 1017.0 |
| 20260507200044 | 67 | 306 | 3.0 | 10.0 | 0.00 | 0.00 | 0.00 | 51 | 1017.3 |
| 20260507194547 | 66 | 250 | 5.0 | 11.0 | 0.00 | 0.00 | 0.00 | 51 | 1017.6 |
| 20260507193046 | 66 | 290 | 4.0 | 8.0 | 0.00 | 0.00 | 0.00 | 49 | 1017.7 |
| 20260507191545 | 66 | 29 | 4.0 | 11.0 | 0.00 | 0.00 | 0.00 | 53 | 1017.9 |
| 20260507190043 | 65 | 323 | 3.0 | 11.0 | 0.00 | 0.00 | 0.00 | 48 | 1017.9 |
| 20260507184546 | 65 | 233 | 3.0 | 8.0 | 0.00 | 0.00 | 0.00 | 52 | 1017.9 |
| 20260507183054 | 65 | 359 | 2.0 | 9.0 | 0.00 | 0.00 | 0.00 | 48 | 1018.1 |
| 20260507181547 | 64 | 287 | 4.0 | 9.0 | 0.00 | 0.00 | 0.00 | 49 | 1018.2 |
| 20260507180053 | 64 | 188 | 5.0 | 11.0 | 0.00 | 0.00 | 0.00 | 46 | 1018.5 |
| 20260507174549 | 65 | 203 | 4.0 | 10.0 | 0.00 | 0.00 | 0.00 | 48 | 1018.7 |
| 20260507173059 | 64 | 256 | 4.0 | 11.0 | 0.00 | 0.00 | 0.00 | 51 | 1019.1 |
| 20260507171553 | 64 | 331 | 1.0 | 6.0 | 0.00 | 0.00 | 0.00 | 55 | 1019.3 |
| 20260507170052 | 63 | 20 | 2.0 | 9.0 | 0.00 | 0.00 | 0.00 | 51 | 1019.5 |
| 20260507164552 | 62 | 248 | 3.0 | 9.0 | 0.00 | 0.00 | 0.00 | 51 | 1019.9 |
| 20260507163051 | 62 | 251 | 4.0 | 10.0 | 0.00 | 0.00 | 0.00 | 51 | 1019.8 |
| 20260507161554 | 62 | 263 | 3.0 | 8.0 | 0.00 | 0.00 | 0.00 | 53 | 1020.0 |
| 20260507160052 | 62 | 126 | 1.0 | 8.0 | 0.00 | 0.00 | 0.00 | 49 | 1019.9 |
| 20260507154548 | 61 | 241 | 2.0 | 6.0 | 0.00 | 0.00 | 0.00 | 53 | 1020.0 |
| 20260507153101 | 60 | 271 | 3.0 | 8.0 | 0.00 | 0.00 | 0.00 | 52 | 1020.0 |
| 20260507151545 | 60 | 351 | 2.0 | 6.0 | 0.00 | 0.00 | 0.00 | 52 | 1020.4 |
| 20260507150050 | 59 | 297 | 3.0 | 9.0 | 0.00 | 0.00 | 0.00 | 52 | 1020.4 |
| 20260507144546 | 58 | 147 | 2.0 | 6.0 | 0.00 | 0.00 | 0.00 | 57 | 1020.4 |
| 20260507143059 | 57 | 235 | 3.0 | 7.0 | 0.00 | 0.00 | 0.00 | 58 | 1020.3 |
| 20260507141547 | 57 | 187 | 2.0 | 5.0 | 0.00 | 0.00 | 0.00 | 59 | 1020.4 |
| 20260507140042 | 55 | 201 | 1.0 | 5.0 | 0.00 | 0.00 | 0.00 | 66 | 1020.6 |
| 20260507134540 | 54 | 131 | 2.0 | 6.0 | 0.00 | 0.00 | 0.00 | 67 | 1020.6 |
| 20260507133044 | 53 | 203 | 1.0 | 3.0 | 0.00 | 0.00 | 0.00 | 73 | 1020.6 |
| 20260507131548 | 51 | 0 | 0.0 | 3.0 | 0.00 | 0.00 | 0.00 | 78 | 1020.7 |
| 20260507130058 | 49 | 129 | 0.0 | 2.0 | 0.00 | 0.00 | 0.00 | 83 | 1020.6 |
| 20260507124551 | 46 | 0 | 0.0 | 2.0 | 0.00 | 0.00 | 0.00 | 90 | 1020.4 |
| 20260507123040 | 43 | 0 | 0.0 | 1.0 | 0.00 | 0.00 | 0.00 | 93 | 1020.3 |
| 20260507121554 | 41 | 0 | 0.0 | 0.0 | 0.00 | 0.00 | 0.00 | 95 | 1020.3 |
| 20260507120251 | 39 | 0 | 0.0 | 0.0 | 0.00 | 0.00 | 0.00 | 94 | 1020.1 |
| 20260507114544 | 39 | 0 | 0.0 | 0.0 | 0.00 | 0.00 | 0.00 | 93 | 1020.1 |